Redding, CA

1:50 AM PST on November 22, 2019 (GMT -0800)
Redding Municipal

Weather History for KRDD - September, 2019

Change the Weather History Date:

Sunday, September 1, 2019

  Actual Average Record
Temperature  
Mean Temperature 81 °F -  
Max Temperature 99 °F 94 °F 113 °F (1950)
Min Temperature 63 °F 61 °F 50 °F (1982)
Degree Days  
Heating Degree Days 0    
Cooling Degree Days 16    
Growing Degree Days 32 (Base 50)    
Moisture  
Dew Point 48 °F    
Average Humidity 41    
Maximum Humidity 67    
Minimum Humidity 15    
Precipitation  
Precipitation 0.00 in 0.01 in 2.77 in (2000)
Month to date precipitation 0.00 0.01  
Year to date precipitation 32.27 21.14  
Sea Level Pressure  
Sea Level Pressure 29.86 in    
Wind  
Wind Speed 4 mph (SSW)    
Max Wind Speed 16 mph    
Max Gust Speed 22 mph    
Visibility 10 miles    
Events      
T = Trace of Precipitation, MM = Missing Value Source: NWS Daily Summary

Daily Weather History Graph

Daily Weather History Graph

Search for Another Location

Airport or City:

Astronomy

Sep. 01, 2019 Rise Set
Actual Time 6:36 AM PDT 7:41 PM PDT
Civil Twilight 6:08 AM PDT 8:09 PM PDT
Nautical Twilight 5:34 AM PDT 8:42 PM PDT
Astronomical Twilight 4:59 AM PDT 9:17 PM PDT
Moon 9:13 AM PDT (9/1) 9:31 PM PDT (9/1)
Length of Visible Light 14h 01m
Length of Day
13h 05m
Waxing Crescent, 8% of the Moon is Illuminated
Sep 1
Waxing Crescent
Sep 5
First Quarter
Sep 13
Full
Sep 21
Last Quarter
Sep 28
New

Hourly Weather History & Observations

Time (PDT) Temp. Dew Point Humidity Pressure Visibility Wind Dir Wind Speed Gust Speed Precip Events Conditions
12:53 AM 75.9 °F 46.9 °F 36% 29.85 in 10.0 mi North 3.5 mph - N/A   Clear
1:53 AM 71.1 °F 48.9 °F 45% 29.86 in 10.0 mi Calm Calm - N/A   Clear
2:53 AM 68.0 °F 51.1 °F 55% 29.86 in 10.0 mi NW 3.5 mph - N/A   Clear
3:53 AM 66.9 °F 51.1 °F 57% 29.86 in 10.0 mi NW 5.8 mph - N/A   Clear
4:53 AM 66.9 °F 52.0 °F 59% 29.87 in 10.0 mi Calm Calm - N/A   Clear
5:53 AM 64.9 °F 52.0 °F 63% 29.88 in 10.0 mi Calm Calm - N/A   Clear
6:53 AM 64.9 °F 53.1 °F 65% 29.90 in 10.0 mi NNW 3.5 mph - N/A   Clear
7:53 AM 71.1 °F 53.1 °F 53% 29.91 in 10.0 mi North 3.5 mph - N/A   Clear
8:53 AM 78.1 °F 52.0 °F 40% 29.91 in 10.0 mi Calm Calm - N/A   Clear
9:53 AM 82.9 °F 50.0 °F 32% 29.91 in 10.0 mi Variable 3.5 mph - N/A   Clear
10:53 AM 87.1 °F 48.9 °F 27% 29.90 in 10.0 mi Calm Calm - N/A   Clear
11:53 AM 91.0 °F 48.0 °F 23% 29.89 in 10.0 mi Calm Calm - N/A   Clear
12:53 PM 93.9 °F 48.9 °F 21% 29.87 in 10.0 mi South 11.5 mph - N/A   Clear
1:53 PM 96.1 °F 48.0 °F 19% 29.86 in 10.0 mi SSE 6.9 mph - N/A   Clear
2:53 PM 97.0 °F 46.0 °F 18% 29.84 in 10.0 mi SE 12.7 mph - N/A   Clear
3:53 PM 98.1 °F 42.1 °F 15% 29.82 in 10.0 mi SSW 11.5 mph 19.6 mph N/A   Clear
4:53 PM 98.1 °F 42.1 °F 15% 29.81 in 10.0 mi South 11.5 mph - N/A   Clear
5:53 PM 97.0 °F 44.1 °F 16% 29.81 in 10.0 mi SSE 10.4 mph - N/A   Clear
6:53 PM 93.9 °F 45.0 °F 18% 29.81 in 10.0 mi South 9.2 mph - N/A   Clear
7:53 PM 90.0 °F 46.9 °F 23% 29.81 in 10.0 mi South 4.6 mph - N/A   Clear
8:53 PM 82.9 °F 48.0 °F 29% 29.82 in 10.0 mi Calm Calm - N/A   Clear
9:53 PM 82.9 °F 46.0 °F 27% 29.83 in 10.0 mi Calm Calm - N/A   Clear
10:53 PM 79.0 °F 46.0 °F 31% 29.85 in 10.0 mi North 4.6 mph - N/A   Clear
11:53 PM 75.0 °F 48.0 °F 38% 29.86 in 10.0 mi WNW 3.5 mph - N/A   Clear